Year,Month,Day,Hour,Minute,Value (Times are PST for windspeed in km/hr)
2015,08,29,00,00,2.40
2015,08,29,00,01,1.70
2015,08,29,00,02,0.80
2015,08,29,00,03,0.50
2015,08,29,00,04,1.50
2015,08,29,00,05,0.00
2015,08,29,00,06,0.40
2015,08,29,00,07,0.20
2015,08,29,00,08,0.00
2015,08,29,00,09,0.10
2015,08,29,00,10,0.00
2015,08,29,00,11,0.10
2015,08,29,00,12,1.00
2015,08,29,00,13,1.10
2015,08,29,00,14,0.90
2015,08,29,00,15,0.20
2015,08,29,00,16,1.00
2015,08,29,00,17,0.30
2015,08,29,00,18,0.00
2015,08,29,00,19,0.00
2015,08,29,00,20,0.00
2015,08,29,00,21,0.00
2015,08,29,00,22,0.00
2015,08,29,00,23,0.00
2015,08,29,00,24,0.00
2015,08,29,00,25,0.00
2015,08,29,00,26,0.00
2015,08,29,00,27,0.00
2015,08,29,00,28,0.00
2015,08,29,00,29,0.00
2015,08,29,00,30,0.00
2015,08,29,00,31,0.00
2015,08,29,00,32,0.00
2015,08,29,00,33,0.00
2015,08,29,00,34,0.00
2015,08,29,00,35,0.00
2015,08,29,00,36,0.00
2015,08,29,00,37,0.00
2015,08,29,00,38,0.00
2015,08,29,00,39,0.00
2015,08,29,00,40,0.00
2015,08,29,00,41,0.70
2015,08,29,00,42,0.80
2015,08,29,00,43,0.10
2015,08,29,00,44,0.00
2015,08,29,00,45,0.00
2015,08,29,00,46,0.10
2015,08,29,00,47,0.10
2015,08,29,00,48,0.00
2015,08,29,00,49,1.40
2015,08,29,00,50,0.30
2015,08,29,00,51,1.20
2015,08,29,00,52,2.40
2015,08,29,00,53,3.90
2015,08,29,00,54,3.40
2015,08,29,00,55,3.90
2015,08,29,00,56,3.40
2015,08,29,00,57,4.10
2015,08,29,00,58,4.30
2015,08,29,00,59,3.70
2015,08,29,01,00,4.00
2015,08,29,01,01,3.50
2015,08,29,01,02,3.40
2015,08,29,01,03,4.10
2015,08,29,01,04,2.80
2015,08,29,01,05,0.60
2015,08,29,01,06,1.30
2015,08,29,01,07,1.30
2015,08,29,01,08,2.80
2015,08,29,01,09,3.20
2015,08,29,01,10,1.50
2015,08,29,01,11,0.40
2015,08,29,01,12,3.00
2015,08,29,01,13,1.60
2015,08,29,01,14,0.70
2015,08,29,01,15,2.00
2015,08,29,01,16,2.00
2015,08,29,01,17,3.40
2015,08,29,01,18,1.50
2015,08,29,01,19,3.70
2015,08,29,01,20,3.30
2015,08,29,01,21,1.70
2015,08,29,01,22,3.90
2015,08,29,01,23,3.70
2015,08,29,01,24,2.60
2015,08,29,01,25,2.30
2015,08,29,01,26,8.80
2015,08,29,01,27,5.50
2015,08,29,01,28,6.70
2015,08,29,01,29,5.90
2015,08,29,01,30,7.00
2015,08,29,01,31,5.00
2015,08,29,01,32,6.40
2015,08,29,01,33,4.70
2015,08,29,01,34,4.30
2015,08,29,01,35,5.70
2015,08,29,01,36,7.60
2015,08,29,01,37,8.50
2015,08,29,01,38,7.10
2015,08,29,01,39,7.00
2015,08,29,01,40,5.70
2015,08,29,01,41,6.40
2015,08,29,01,42,7.40
2015,08,29,01,43,6.90
2015,08,29,01,44,5.60
2015,08,29,01,45,5.60
2015,08,29,01,46,7.80
2015,08,29,01,47,8.20
2015,08,29,01,48,9.40
2015,08,29,01,49,7.70
2015,08,29,01,50,8.00
2015,08,29,01,51,9.60
2015,08,29,01,52,9.10
2015,08,29,01,53,6.60
2015,08,29,01,54,7.50
2015,08,29,01,55,7.30
2015,08,29,01,56,7.20
2015,08,29,01,57,5.00
2015,08,29,01,58,8.20
2015,08,29,01,59,4.50
2015,08,29,02,00,8.00
2015,08,29,02,01,9.70
2015,08,29,02,02,9.70
2015,08,29,02,03,10.10
2015,08,29,02,04,5.80
2015,08,29,02,05,8.30
2015,08,29,02,06,6.80
2015,08,29,02,07,12.10
2015,08,29,02,08,10.90
2015,08,29,02,09,8.40
2015,08,29,02,10,4.50
2015,08,29,02,11,3.50
2015,08,29,02,12,3.90
2015,08,29,02,13,2.30
2015,08,29,02,14,2.00
2015,08,29,02,15,2.40
2015,08,29,02,16,2.50
2015,08,29,02,17,2.30
2015,08,29,02,18,2.10
2015,08,29,02,19,0.40
2015,08,29,02,20,0.40
2015,08,29,02,21,0.90
2015,08,29,02,22,1.90
2015,08,29,02,23,0.80
2015,08,29,02,24,1.50
2015,08,29,02,25,0.70
2015,08,29,02,26,3.90
2015,08,29,02,27,4.10
2015,08,29,02,28,7.00
2015,08,29,02,29,4.80
2015,08,29,02,30,3.70
2015,08,29,02,31,0.60
2015,08,29,02,32,2.20
2015,08,29,02,33,2.30
2015,08,29,02,34,4.60
2015,08,29,02,35,1.20
2015,08,29,02,36,2.70
2015,08,29,02,37,1.90
2015,08,29,02,38,3.70
2015,08,29,02,39,3.80
2015,08,29,02,40,2.10
2015,08,29,02,41,3.70
2015,08,29,02,42,6.80
2015,08,29,02,43,7.50
2015,08,29,02,44,9.00
2015,08,29,02,45,6.70
2015,08,29,02,46,8.10
2015,08,29,02,47,8.80
2015,08,29,02,48,9.70
2015,08,29,02,49,8.30
2015,08,29,02,50,10.00
2015,08,29,02,51,4.70
2015,08,29,02,52,10.50
2015,08,29,02,53,9.70
2015,08,29,02,54,8.70
2015,08,29,02,55,6.70
2015,08,29,02,56,11.10
2015,08,29,02,57,9.00
2015,08,29,02,58,9.70
2015,08,29,02,59,10.00
2015,08,29,03,00,11.60
2015,08,29,03,01,10.50
2015,08,29,03,02,7.50
2015,08,29,03,03,5.90
2015,08,29,03,04,4.80
2015,08,29,03,05,4.30
2015,08,29,03,06,7.20
2015,08,29,03,07,10.10
2015,08,29,03,08,7.90
2015,08,29,03,09,6.80
2015,08,29,03,10,6.10
2015,08,29,03,11,8.60
2015,08,29,03,12,7.30
2015,08,29,03,13,4.70
2015,08,29,03,14,2.80
2015,08,29,03,15,2.10
2015,08,29,03,16,2.70
2015,08,29,03,17,2.70
2015,08,29,03,18,4.80
2015,08,29,03,19,5.40
2015,08,29,03,20,4.30
2015,08,29,03,21,4.30
2015,08,29,03,22,1.50
2015,08,29,03,23,1.80
2015,08,29,03,24,2.90
2015,08,29,03,25,1.70
2015,08,29,03,26,1.80
2015,08,29,03,27,1.00
2015,08,29,03,28,0.40
2015,08,29,03,29,0.30
2015,08,29,03,30,0.80
2015,08,29,03,31,2.90
2015,08,29,03,32,2.00
2015,08,29,03,33,3.80
2015,08,29,03,34,1.70
2015,08,29,03,35,1.30
2015,08,29,03,36,2.30
2015,08,29,03,37,1.70
2015,08,29,03,38,3.10
2015,08,29,03,39,5.00
2015,08,29,03,40,6.80
2015,08,29,03,41,8.10
2015,08,29,03,42,9.70
2015,08,29,03,43,10.10
2015,08,29,03,44,9.20
2015,08,29,03,45,9.10
2015,08,29,03,46,8.80
2015,08,29,03,47,10.20
2015,08,29,03,48,5.10
2015,08,29,03,49,5.30
2015,08,29,03,50,5.90
2015,08,29,03,51,4.80
2015,08,29,03,52,7.70
2015,08,29,03,53,9.20
2015,08,29,03,54,9.50
2015,08,29,03,55,9.50
2015,08,29,03,56,3.70
2015,08,29,03,57,2.60
2015,08,29,03,58,3.80
2015,08,29,03,59,7.80
2015,08,29,04,00,9.00
2015,08,29,04,01,8.40
2015,08,29,04,02,8.60
2015,08,29,04,03,8.30
2015,08,29,04,04,9.40
2015,08,29,04,05,8.10
2015,08,29,04,06,8.00
2015,08,29,04,07,6.60
2015,08,29,04,08,4.80
2015,08,29,04,09,8.00
2015,08,29,04,10,10.60
2015,08,29,04,11,11.30
2015,08,29,04,12,9.70
2015,08,29,04,13,11.10
2015,08,29,04,14,7.80
2015,08,29,04,15,9.80
2015,08,29,04,16,10.30
2015,08,29,04,17,8.70
2015,08,29,04,18,11.90
2015,08,29,04,19,13.80
2015,08,29,04,20,9.00
2015,08,29,04,21,9.30
2015,08,29,04,22,9.30
2015,08,29,04,23,7.80
2015,08,29,04,24,5.30
2015,08,29,04,25,6.30
2015,08,29,04,26,4.80
2015,08,29,04,27,5.00
2015,08,29,04,28,7.90
2015,08,29,04,29,10.60
2015,08,29,04,30,8.90
2015,08,29,04,31,6.80
2015,08,29,04,32,8.60
2015,08,29,04,33,7.00
2015,08,29,04,34,5.60
2015,08,29,04,35,4.40
2015,08,29,04,36,5.40
2015,08,29,04,37,2.20
2015,08,29,04,38,4.40
2015,08,29,04,39,1.40
2015,08,29,04,40,0.50
2015,08,29,04,41,0.90
2015,08,29,04,42,1.40
2015,08,29,04,43,0.10
2015,08,29,04,44,2.50
2015,08,29,04,45,4.50
2015,08,29,04,46,5.30
2015,08,29,04,47,6.70
2015,08,29,04,48,4.60
2015,08,29,04,49,4.80
2015,08,29,04,50,3.80
2015,08,29,04,51,3.90
2015,08,29,04,52,5.20
2015,08,29,04,53,6.90
2015,08,29,04,54,7.50
2015,08,29,04,55,6.40
2015,08,29,04,56,7.10
2015,08,29,04,57,5.30
2015,08,29,04,58,7.50
2015,08,29,04,59,10.20
2015,08,29,05,00,6.30
2015,08,29,05,01,6.10
2015,08,29,05,02,5.30
2015,08,29,05,03,3.70
2015,08,29,05,04,5.90
2015,08,29,05,05,8.30
2015,08,29,05,06,8.10
2015,08,29,05,07,7.50
2015,08,29,05,08,5.80
2015,08,29,05,09,6.40
2015,08,29,05,10,5.50
2015,08,29,05,11,2.40
2015,08,29,05,12,4.40
2015,08,29,05,13,7.50
2015,08,29,05,14,6.40
2015,08,29,05,15,5.40
2015,08,29,05,16,8.40
2015,08,29,05,17,7.30
2015,08,29,05,18,5.90
2015,08,29,05,19,4.00
2015,08,29,05,20,4.80
2015,08,29,05,21,3.80
2015,08,29,05,22,5.00
2015,08,29,05,23,1.50
2015,08,29,05,24,2.60
2015,08,29,05,25,2.70
2015,08,29,05,26,1.80
2015,08,29,05,27,2.00
2015,08,29,05,28,5.30
2015,08,29,05,29,2.90
2015,08,29,05,30,0.30
2015,08,29,05,31,2.70
2015,08,29,05,32,4.70
2015,08,29,05,33,4.30
2015,08,29,05,34,3.70
2015,08,29,05,35,2.80
2015,08,29,05,36,0.10
2015,08,29,05,37,0.80
2015,08,29,05,38,0.00
2015,08,29,05,39,0.00
2015,08,29,05,40,0.90
2015,08,29,05,41,0.60
2015,08,29,05,42,0.80
2015,08,29,05,43,0.10
2015,08,29,05,44,1.80
2015,08,29,05,45,1.90
2015,08,29,05,46,2.00
2015,08,29,05,47,2.10
2015,08,29,05,48,2.90
2015,08,29,05,49,3.10
2015,08,29,05,50,1.50
2015,08,29,05,51,1.50
2015,08,29,05,52,3.10
2015,08,29,05,53,4.30
2015,08,29,05,54,3.90
2015,08,29,05,55,7.10
2015,08,29,05,56,4.30
2015,08,29,05,57,2.70
2015,08,29,05,58,4.00
2015,08,29,05,59,2.20
2015,08,29,06,00,1.80
2015,08,29,06,01,1.00
2015,08,29,06,02,4.50
2015,08,29,06,03,12.40
2015,08,29,06,04,9.00
2015,08,29,06,05,11.10
2015,08,29,06,06,13.90
2015,08,29,06,07,10.20
2015,08,29,06,08,16.10
2015,08,29,06,09,13.10
2015,08,29,06,10,13.70
2015,08,29,06,11,13.50
2015,08,29,06,12,14.30
2015,08,29,06,13,14.50
2015,08,29,06,14,19.40
2015,08,29,06,15,18.60
2015,08,29,06,16,20.40
2015,08,29,06,17,20.10
2015,08,29,06,18,22.50
2015,08,29,06,19,22.20
2015,08,29,06,20,20.80
2015,08,29,06,21,21.50
2015,08,29,06,22,17.00
2015,08,29,06,23,11.00
2015,08,29,06,24,9.00
2015,08,29,06,25,9.70
2015,08,29,06,26,9.40
2015,08,29,06,27,13.80
2015,08,29,06,28,12.80
2015,08,29,06,29,13.40
2015,08,29,06,30,18.30
2015,08,29,06,31,18.40
2015,08,29,06,32,16.30
2015,08,29,06,33,14.90
2015,08,29,06,34,13.30
2015,08,29,06,35,8.00
2015,08,29,06,36,5.90
2015,08,29,06,37,7.10
2015,08,29,06,38,7.50
2015,08,29,06,39,8.00
2015,08,29,06,40,6.90
2015,08,29,06,41,9.50
2015,08,29,06,42,9.10
2015,08,29,06,43,7.70
2015,08,29,06,44,12.40
2015,08,29,06,45,9.80
2015,08,29,06,46,14.80
2015,08,29,06,47,9.00
2015,08,29,06,48,6.20
2015,08,29,06,49,7.50
2015,08,29,06,50,7.20
2015,08,29,06,51,5.70
2015,08,29,06,52,4.50
2015,08,29,06,53,5.10
2015,08,29,06,54,4.80
2015,08,29,06,55,4.50
2015,08,29,06,56,4.50
2015,08,29,06,57,4.20
2015,08,29,06,58,4.80
2015,08,29,06,59,3.70
2015,08,29,07,00,3.80
2015,08,29,07,01,6.80
2015,08,29,07,02,8.60
2015,08,29,07,03,7.50
2015,08,29,07,04,6.50
2015,08,29,07,05,6.40
2015,08,29,07,06,1.80
2015,08,29,07,07,2.40
2015,08,29,07,08,2.60
2015,08,29,07,09,3.30
2015,08,29,07,10,2.90
2015,08,29,07,11,2.80
2015,08,29,07,12,7.90
2015,08,29,07,13,4.00
2015,08,29,07,14,8.10
2015,08,29,07,15,7.30
2015,08,29,07,16,10.30
2015,08,29,07,17,4.20
2015,08,29,07,18,7.60
2015,08,29,07,19,4.30
2015,08,29,07,20,4.60
2015,08,29,07,21,3.40
2015,08,29,07,22,9.70
2015,08,29,07,23,11.20
2015,08,29,07,24,13.80
2015,08,29,07,25,16.10
2015,08,29,07,26,16.20
2015,08,29,07,27,13.20
2015,08,29,07,28,6.80
2015,08,29,07,29,5.00
2015,08,29,07,30,7.00
2015,08,29,07,31,9.10
2015,08,29,07,32,4.50
2015,08,29,07,33,1.70
2015,08,29,07,34,1.20
2015,08,29,07,35,4.50
2015,08,29,07,36,4.40
2015,08,29,07,37,7.70
2015,08,29,07,38,13.80
2015,08,29,07,39,19.30
2015,08,29,07,40,14.60
2015,08,29,07,41,13.10
2015,08,29,07,42,13.10
2015,08,29,07,43,13.80
2015,08,29,07,44,12.70
2015,08,29,07,45,13.80
2015,08,29,07,46,14.30
2015,08,29,07,47,20.80
2015,08,29,07,48,20.30
2015,08,29,07,49,19.20
2015,08,29,07,50,14.50
2015,08,29,07,51,13.70
2015,08,29,07,52,12.70
2015,08,29,07,53,14.60
2015,08,29,07,54,18.90
2015,08,29,07,55,16.40
2015,08,29,07,56,16.50
2015,08,29,07,57,16.00
2015,08,29,07,58,15.30
2015,08,29,07,59,11.50
2015,08,29,08,00,11.90
2015,08,29,08,01,10.00
2015,08,29,08,02,9.30
2015,08,29,08,03,7.60
2015,08,29,08,04,7.90
2015,08,29,08,05,8.50
2015,08,29,08,06,12.60
2015,08,29,08,07,8.00
2015,08,29,08,08,6.50
2015,08,29,08,09,5.90
2015,08,29,08,10,9.20
2015,08,29,08,11,14.10
2015,08,29,08,12,7.70
2015,08,29,08,13,7.40
2015,08,29,08,14,12.40
2015,08,29,08,15,9.70
2015,08,29,08,16,13.20
2015,08,29,08,17,7.70
2015,08,29,08,18,6.40
2015,08,29,08,19,6.70
2015,08,29,08,20,11.50
2015,08,29,08,21,8.20
2015,08,29,08,22,7.50
2015,08,29,08,23,12.10
2015,08,29,08,24,10.50
2015,08,29,08,25,9.00
2015,08,29,08,26,11.60
2015,08,29,08,27,11.80
2015,08,29,08,28,7.70
2015,08,29,08,29,8.00
2015,08,29,08,30,13.20
2015,08,29,08,31,7.30
2015,08,29,08,32,11.80
2015,08,29,08,33,10.20
2015,08,29,08,34,10.90
2015,08,29,08,35,10.50
2015,08,29,08,36,13.50
2015,08,29,08,37,9.10
2015,08,29,08,38,9.50
2015,08,29,08,39,15.20
2015,08,29,08,40,11.30
2015,08,29,08,41,8.00
2015,08,29,08,42,10.20
2015,08,29,08,43,12.90
2015,08,29,08,44,10.50
2015,08,29,08,45,6.40
2015,08,29,08,46,12.40
2015,08,29,08,47,17.60
2015,08,29,08,48,18.00
2015,08,29,08,49,9.00
2015,08,29,08,50,17.00
2015,08,29,08,51,19.10
2015,08,29,08,52,17.00
2015,08,29,08,53,13.90
2015,08,29,08,54,7.10
2015,08,29,08,55,11.50
2015,08,29,08,56,8.90
2015,08,29,08,57,13.60
2015,08,29,08,58,12.70
2015,08,29,08,59,15.70
2015,08,29,09,00,9.10
2015,08,29,09,01,16.20
2015,08,29,09,02,12.70
2015,08,29,09,03,11.00
2015,08,29,09,04,10.60
2015,08,29,09,05,16.50
2015,08,29,09,06,13.00
2015,08,29,09,07,7.30
2015,08,29,09,08,11.40
2015,08,29,09,09,8.10
2015,08,29,09,10,9.40
2015,08,29,09,11,11.20
2015,08,29,09,12,10.40
2015,08,29,09,13,6.60
2015,08,29,09,14,7.90
2015,08,29,09,15,7.80
2015,08,29,09,16,6.40
2015,08,29,09,17,7.40
2015,08,29,09,18,8.90
2015,08,29,09,19,8.90
2015,08,29,09,20,9.30
2015,08,29,09,21,9.50
2015,08,29,09,22,7.40
2015,08,29,09,23,7.90
2015,08,29,09,24,11.00
2015,08,29,09,25,7.80
2015,08,29,09,26,8.90
2015,08,29,09,27,9.00
2015,08,29,09,28,8.60
2015,08,29,09,29,9.50
2015,08,29,09,30,7.50
2015,08,29,09,31,12.00
2015,08,29,09,32,15.40
2015,08,29,09,33,10.10
2015,08,29,09,34,13.00
2015,08,29,09,35,12.20
2015,08,29,09,36,11.30
2015,08,29,09,37,15.90
2015,08,29,09,38,12.00
2015,08,29,09,39,15.30
2015,08,29,09,40,15.30
2015,08,29,09,41,13.00
2015,08,29,09,42,15.10
2015,08,29,09,43,13.50
2015,08,29,09,44,14.30
2015,08,29,09,45,8.00
2015,08,29,09,46,9.90
2015,08,29,09,47,8.30
2015,08,29,09,48,13.50
2015,08,29,09,49,9.00
2015,08,29,09,50,12.00
2015,08,29,09,51,16.70
2015,08,29,09,52,10.60
2015,08,29,09,53,18.20
2015,08,29,09,54,15.20
2015,08,29,09,55,12.50
2015,08,29,09,56,18.80
2015,08,29,09,57,12.50
2015,08,29,09,58,9.90
2015,08,29,09,59,17.60
2015,08,29,10,00,8.80
2015,08,29,10,01,12.10
2015,08,29,10,02,13.80
2015,08,29,10,03,11.90
2015,08,29,10,04,10.90
2015,08,29,10,05,11.20
2015,08,29,10,06,11.80
2015,08,29,10,07,10.50
2015,08,29,10,08,14.80
2015,08,29,10,09,12.20
2015,08,29,10,10,10.90
2015,08,29,10,11,12.40
2015,08,29,10,12,11.90
2015,08,29,10,13,13.70
2015,08,29,10,14,14.70
2015,08,29,10,15,14.80
2015,08,29,10,16,9.50
2015,08,29,10,17,9.00
2015,08,29,10,18,11.50
2015,08,29,10,19,7.60
2015,08,29,10,20,14.30
2015,08,29,10,21,13.00
2015,08,29,10,22,13.00
2015,08,29,10,23,15.70
2015,08,29,10,24,12.80
2015,08,29,10,25,13.90
2015,08,29,10,26,12.70
2015,08,29,10,27,10.70
2015,08,29,10,28,11.20
2015,08,29,10,29,8.90
2015,08,29,10,30,12.50
2015,08,29,10,31,14.30
2015,08,29,10,32,14.90
2015,08,29,10,33,10.20
2015,08,29,10,34,10.30
2015,08,29,10,35,10.50
2015,08,29,10,36,9.70
2015,08,29,10,37,15.20
2015,08,29,10,38,12.10
2015,08,29,10,39,10.70
2015,08,29,10,40,11.30
2015,08,29,10,41,10.40
2015,08,29,10,42,9.20
2015,08,29,10,43,8.60
2015,08,29,10,44,10.50
2015,08,29,10,45,9.80
2015,08,29,10,46,10.80
2015,08,29,10,47,14.80
2015,08,29,10,48,10.10
2015,08,29,10,49,10.30
2015,08,29,10,50,11.50
2015,08,29,10,51,11.90
2015,08,29,10,52,10.80
2015,08,29,10,53,14.00
2015,08,29,10,54,12.30
2015,08,29,10,55,10.70
2015,08,29,10,56,10.10
2015,08,29,10,57,10.30
2015,08,29,10,58,11.60
2015,08,29,10,59,10.20
2015,08,29,11,00,10.60
2015,08,29,11,01,12.90
2015,08,29,11,02,11.90
2015,08,29,11,03,13.10
2015,08,29,11,04,17.10
2015,08,29,11,05,16.40
2015,08,29,11,06,13.90
2015,08,29,11,07,13.20
2015,08,29,11,08,15.20
2015,08,29,11,09,19.00
2015,08,29,11,10,16.40
2015,08,29,11,11,13.00
2015,08,29,11,12,12.20
2015,08,29,11,13,14.10
2015,08,29,11,14,14.90
2015,08,29,11,15,11.50
2015,08,29,11,16,14.60
2015,08,29,11,17,13.10
2015,08,29,11,18,9.60
2015,08,29,11,19,11.10
2015,08,29,11,20,7.50
2015,08,29,11,21,9.40
2015,08,29,11,22,10.20
2015,08,29,11,23,11.00
2015,08,29,11,24,10.30
2015,08,29,11,25,10.80
2015,08,29,11,26,13.00
2015,08,29,11,27,11.80
2015,08,29,11,28,12.10
2015,08,29,11,29,7.80
2015,08,29,11,30,10.20
2015,08,29,11,31,17.20
2015,08,29,11,32,7.30
2015,08,29,11,33,6.50
2015,08,29,11,34,7.10
2015,08,29,11,35,7.60
2015,08,29,11,36,9.40
2015,08,29,11,37,8.20
2015,08,29,11,38,15.60
2015,08,29,11,39,12.70
2015,08,29,11,40,16.10
2015,08,29,11,41,14.60
2015,08,29,11,42,8.20
2015,08,29,11,43,16.00
2015,08,29,11,44,11.70
2015,08,29,11,45,12.10
2015,08,29,11,46,18.40
2015,08,29,11,47,13.30
2015,08,29,11,48,12.10
2015,08,29,11,49,19.20
2015,08,29,11,50,22.00
2015,08,29,11,51,11.60
2015,08,29,11,52,13.90
2015,08,29,11,53,20.40
2015,08,29,11,54,21.10
2015,08,29,11,55,22.90
2015,08,29,11,56,17.10
2015,08,29,11,57,12.40
2015,08,29,11,58,12.70
2015,08,29,11,59,17.60
2015,08,29,12,00,20.00
2015,08,29,12,01,26.30
2015,08,29,12,02,30.90
2015,08,29,12,03,24.00
2015,08,29,12,04,26.10
2015,08,29,12,05,23.90
2015,08,29,12,06,22.40
2015,08,29,12,07,25.80
2015,08,29,12,08,19.50
2015,08,29,12,09,29.40
2015,08,29,12,10,19.90
2015,08,29,12,11,14.70
2015,08,29,12,12,24.10
2015,08,29,12,13,27.80
2015,08,29,12,14,27.70
2015,08,29,12,15,28.50
2015,08,29,12,16,32.20
2015,08,29,12,17,32.60
2015,08,29,12,18,26.90
2015,08,29,12,19,23.60
2015,08,29,12,20,24.20
2015,08,29,12,21,20.90
2015,08,29,12,22,28.90
2015,08,29,12,23,28.80
2015,08,29,12,24,27.20
2015,08,29,12,25,24.10
2015,08,29,12,26,29.80
2015,08,29,12,27,30.90
2015,08,29,12,28,27.90
2015,08,29,12,29,25.50
2015,08,29,12,30,19.70
2015,08,29,12,31,19.40
2015,08,29,12,32,33.80
2015,08,29,12,33,27.10
2015,08,29,12,34,19.80
2015,08,29,12,35,27.70
2015,08,29,12,36,34.20
2015,08,29,12,37,43.30
2015,08,29,12,38,30.80
2015,08,29,12,39,24.90
2015,08,29,12,40,25.10
2015,08,29,12,41,20.80
2015,08,29,12,42,22.10
2015,08,29,12,43,26.40
2015,08,29,12,44,22.30
2015,08,29,12,45,21.30
2015,08,29,12,46,27.90
2015,08,29,12,47,34.00
2015,08,29,12,48,32.60
2015,08,29,12,49,23.80
2015,08,29,12,50,29.30
2015,08,29,12,51,27.80
2015,08,29,12,52,22.80
2015,08,29,12,53,19.40
2015,08,29,12,54,31.30
2015,08,29,12,55,23.60
2015,08,29,12,56,29.30
2015,08,29,12,57,24.40
2015,08,29,12,58,24.70
2015,08,29,12,59,23.00
2015,08,29,13,00,37.20
2015,08,29,13,01,27.40
2015,08,29,13,02,31.30
2015,08,29,13,03,24.90
2015,08,29,13,04,25.40
2015,08,29,13,05,23.20
2015,08,29,13,06,20.80
2015,08,29,13,07,19.70
2015,08,29,13,08,21.90
2015,08,29,13,09,19.30
2015,08,29,13,10,26.70
2015,08,29,13,11,27.50
2015,08,29,13,12,25.50
2015,08,29,13,13,17.60
2015,08,29,13,14,27.30
2015,08,29,13,15,24.10
2015,08,29,13,16,25.30
2015,08,29,13,17,16.60
2015,08,29,13,18,18.50
2015,08,29,13,19,18.40
2015,08,29,13,20,15.50
2015,08,29,13,21,18.80
2015,08,29,13,22,20.80
2015,08,29,13,23,15.40
2015,08,29,13,24,22.20
2015,08,29,13,25,19.00
2015,08,29,13,26,26.70
2015,08,29,13,27,17.80
2015,08,29,13,28,21.60
2015,08,29,13,29,22.80
2015,08,29,13,30,15.30
2015,08,29,13,31,9.00
2015,08,29,13,32,14.00
2015,08,29,13,33,22.30
2015,08,29,13,34,21.70
2015,08,29,13,35,29.00
2015,08,29,13,36,21.70
2015,08,29,13,37,32.20
2015,08,29,13,38,20.50
2015,08,29,13,39,18.90
2015,08,29,13,40,12.60
2015,08,29,13,41,19.00
2015,08,29,13,42,18.20
2015,08,29,13,43,18.10
2015,08,29,13,44,17.00
2015,08,29,13,45,15.10
2015,08,29,13,46,18.90
2015,08,29,13,47,21.80
2015,08,29,13,48,13.80
2015,08,29,13,49,11.30
2015,08,29,13,50,13.60
2015,08,29,13,51,13.50
2015,08,29,13,52,13.00
2015,08,29,13,53,8.20
2015,08,29,13,54,13.50
2015,08,29,13,55,15.70
2015,08,29,13,56,10.50
2015,08,29,13,57,8.70
2015,08,29,13,58,10.00
2015,08,29,13,59,16.00
2015,08,29,14,00,10.00
2015,08,29,14,01,13.30
2015,08,29,14,02,12.10
2015,08,29,14,03,12.00
2015,08,29,14,04,14.10
2015,08,29,14,05,16.80
2015,08,29,14,06,18.30
2015,08,29,14,07,18.50
2015,08,29,14,08,10.60
2015,08,29,14,09,9.70
2015,08,29,14,10,11.60
2015,08,29,14,11,10.90
2015,08,29,14,12,12.30
2015,08,29,14,13,10.00
2015,08,29,14,14,13.40
2015,08,29,14,15,14.80
2015,08,29,14,16,14.00
2015,08,29,14,17,15.70
2015,08,29,14,18,11.50
2015,08,29,14,19,16.50
2015,08,29,14,20,12.10
2015,08,29,14,21,15.30
2015,08,29,14,22,16.40
2015,08,29,14,23,14.50
2015,08,29,14,24,16.30
2015,08,29,14,25,13.00
2015,08,29,14,26,7.90
2015,08,29,14,27,12.00
2015,08,29,14,28,12.80
2015,08,29,14,29,6.60
2015,08,29,14,30,6.60
2015,08,29,14,31,5.90
2015,08,29,14,32,7.60
2015,08,29,14,33,5.80
2015,08,29,14,34,9.00
2015,08,29,14,35,5.30
2015,08,29,14,36,2.70
2015,08,29,14,37,5.90
2015,08,29,14,38,3.70
2015,08,29,14,39,4.00
2015,08,29,14,40,9.10
2015,08,29,14,41,7.80
2015,08,29,14,42,8.00
2015,08,29,14,43,6.10
2015,08,29,14,44,3.00
2015,08,29,14,45,5.90
2015,08,29,14,46,7.70
2015,08,29,14,47,7.60
2015,08,29,14,48,2.80
2015,08,29,14,49,6.40
2015,08,29,14,50,6.30
2015,08,29,14,51,5.20
2015,08,29,14,52,1.40
2015,08,29,14,53,6.60
2015,08,29,14,54,3.20
2015,08,29,14,55,6.20
2015,08,29,14,56,5.80
2015,08,29,14,57,6.70
2015,08,29,14,58,6.40
2015,08,29,14,59,12.20
2015,08,29,15,00,11.90
2015,08,29,15,01,16.20
2015,08,29,15,02,15.50
2015,08,29,15,03,12.70
2015,08,29,15,04,12.60
2015,08,29,15,05,17.60
2015,08,29,15,06,16.60
2015,08,29,15,07,19.40
2015,08,29,15,08,18.90
2015,08,29,15,09,17.80
2015,08,29,15,10,15.30
2015,08,29,15,11,20.80
2015,08,29,15,12,18.10
2015,08,29,15,13,12.30
2015,08,29,15,14,16.40
2015,08,29,15,15,12.70
2015,08,29,15,16,16.80
2015,08,29,15,17,15.80
2015,08,29,15,18,30.60
2015,08,29,15,19,24.20
2015,08,29,15,20,17.80
2015,08,29,15,21,14.60
2015,08,29,15,22,19.80
2015,08,29,15,23,29.00
2015,08,29,15,24,21.10
2015,08,29,15,25,18.00
2015,08,29,15,26,20.50
2015,08,29,15,27,20.90
2015,08,29,15,28,21.00
2015,08,29,15,29,23.40
2015,08,29,15,30,26.50
2015,08,29,15,31,19.30
2015,08,29,15,32,14.40
2015,08,29,15,33,13.50
2015,08,29,15,34,9.90
2015,08,29,15,35,11.00
2015,08,29,15,36,16.60
2015,08,29,15,37,13.80
2015,08,29,15,38,13.00
2015,08,29,15,39,14.90
2015,08,29,15,40,6.30
2015,08,29,15,41,6.80
2015,08,29,15,42,11.00
2015,08,29,15,43,14.00
2015,08,29,15,44,9.10
2015,08,29,15,45,7.00
2015,08,29,15,46,7.30
2015,08,29,15,47,6.90
2015,08,29,15,48,10.90
2015,08,29,15,49,11.50
2015,08,29,15,50,9.10
2015,08,29,15,51,11.50
2015,08,29,15,52,12.70
2015,08,29,15,53,7.80
2015,08,29,15,54,10.10
2015,08,29,15,55,15.20
2015,08,29,15,56,7.00
2015,08,29,15,57,7.80
2015,08,29,15,58,7.80
2015,08,29,15,59,11.90
2015,08,29,16,00,13.10
2015,08,29,16,01,10.00
2015,08,29,16,02,11.30
2015,08,29,16,03,10.50
2015,08,29,16,04,8.90
2015,08,29,16,05,17.80
2015,08,29,16,06,9.60
2015,08,29,16,07,7.50
2015,08,29,16,08,6.30
2015,08,29,16,09,6.40
2015,08,29,16,10,7.80
2015,08,29,16,11,8.30
2015,08,29,16,12,5.80
2015,08,29,16,13,9.30
2015,08,29,16,14,9.10
2015,08,29,16,15,12.30
2015,08,29,16,16,16.10
2015,08,29,16,17,20.60
2015,08,29,16,18,18.60
2015,08,29,16,19,9.80
2015,08,29,16,20,12.50
2015,08,29,16,21,12.00
2015,08,29,16,22,9.90
2015,08,29,16,23,18.30
2015,08,29,16,24,11.60
2015,08,29,16,25,11.40
2015,08,29,16,26,17.60
2015,08,29,16,27,20.00
2015,08,29,16,28,11.60
2015,08,29,16,29,14.90
2015,08,29,16,30,15.40
2015,08,29,16,31,17.80
2015,08,29,16,32,16.50
2015,08,29,16,33,16.50
2015,08,29,16,34,14.80
2015,08,29,16,35,13.80
2015,08,29,16,36,14.50
2015,08,29,16,37,16.60
2015,08,29,16,38,16.20
2015,08,29,16,39,16.70
2015,08,29,16,40,14.90
2015,08,29,16,41,15.70
2015,08,29,16,42,11.30
2015,08,29,16,43,13.00
2015,08,29,16,44,13.20
2015,08,29,16,45,15.30
2015,08,29,16,46,13.20
2015,08,29,16,47,13.90
2015,08,29,16,48,10.10
2015,08,29,16,49,8.10
2015,08,29,16,50,12.00
2015,08,29,16,51,13.60
2015,08,29,16,52,12.90
2015,08,29,16,53,9.10
2015,08,29,16,54,12.00
2015,08,29,16,55,10.90
2015,08,29,16,56,11.60
2015,08,29,16,57,8.40
2015,08,29,16,58,9.20
2015,08,29,16,59,10.70
2015,08,29,17,00,13.90
2015,08,29,17,01,15.40
2015,08,29,17,02,13.10
2015,08,29,17,03,13.20
2015,08,29,17,04,9.30
2015,08,29,17,05,13.00
2015,08,29,17,06,18.70
2015,08,29,17,07,13.00
2015,08,29,17,08,15.90
2015,08,29,17,09,12.80
2015,08,29,17,10,13.60
2015,08,29,17,11,16.50
2015,08,29,17,12,17.10
2015,08,29,17,13,18.50
2015,08,29,17,14,17.40
2015,08,29,17,15,16.90
2015,08,29,17,16,17.10
2015,08,29,17,17,10.00
2015,08,29,17,18,14.00
2015,08,29,17,19,5.70
2015,08,29,17,20,13.90
2015,08,29,17,21,10.20
2015,08,29,17,22,8.10
2015,08,29,17,23,7.30
2015,08,29,17,24,8.00
2015,08,29,17,25,8.70
2015,08,29,17,26,7.20
2015,08,29,17,27,8.30
2015,08,29,17,28,6.50
2015,08,29,17,29,7.80
2015,08,29,17,30,6.40
2015,08,29,17,31,6.80
2015,08,29,17,32,9.80
2015,08,29,17,33,12.70
2015,08,29,17,34,9.60
2015,08,29,17,35,12.80
2015,08,29,17,36,9.10
2015,08,29,17,37,11.10
2015,08,29,17,38,15.60
2015,08,29,17,39,11.00
2015,08,29,17,40,10.50
2015,08,29,17,41,11.20
2015,08,29,17,42,6.20
2015,08,29,17,43,14.10